Flag for U.S.A. Weather past 2 weeks in Metlakatla, Alaska, U.S.A.

Now
55 °F

Clear.


Feels Like: 55 °F
Forecast: 58 / 64 °F
Wind: 3 mph from Southeast

Location: Metlakatla - Metlakatla Seaplane Base

Current Time: Aug 4, 2015 at 12:34:55 AM

Latest Report: Aug 3, 2015 at 10:56 PM


Visibility: 10 mi

Pressure: 29.94 "Hg

Humidity: 94%

Dew point: 54 °F

Location of MetlakatlaLocation

Historic Weather in Metlakatla — Graph

°F

Metlakatla temperature yesterday

Maximum temperature yesterday: 63 °F (at 6:56 PM)
Minimum temperature yesterday: 55 °F (at 12:16 AM)
Average temperature yesterday: 59 °F

Past Weeks' High & Low Weather Summary

 TemperatureHumidityPressure
High72 °F (Jul 21, 4:36 PM)100% (Jul 30, 5:36 PM)30.18 "Hg (Jul 30, 5:36 PM)
Low52 °F (Aug 1, 3:16 AM)52% (Jul 22, 5:16 PM)29.77 "Hg (Jul 24, 4:16 PM)
Average60 °F83%29.96 "Hg
* Reported Jul 19 10:16 PM — Aug 3 10:56 PM, Metlakatla, Weather by CustomWeather, © 2015

Note: Actual official high and low records may vary slightly from our data, if they occured in-between our weather recording intervals... More about our weather records

Advertising

Metlakatla weather history for previous 24 hours

 ConditionsComfort  
Time TempWeatherWind HumidityBarometerVisibility
10:56 PM
Mon, Aug 3
55 °FClear.3 mph94%29.94 "Hg10 mi
10:36 PM55 °FClear.3 mph94%29.95 "Hg10 mi
10:16 PM55 °FPassing clouds.3 mph94%29.95 "Hg9 mi
9:56 PM57 °FPassing clouds.3 mph94%29.95 "Hg10 mi
9:36 PM57 °FOvercast.3 mph88%29.95 "Hg10 mi
9:16 PM57 °FLow clouds.3 mph88%29.95 "Hg10 mi
8:36 PM59 °FOvercast.No wind88%29.95 "Hg10 mi
7:56 PM61 °FPassing clouds.6 mph88%29.95 "Hg10 mi
7:36 PM63 °FPassing clouds.6 mph83%29.95 "Hg10 mi
7:16 PM61 °FScattered clouds.7 mph83%29.95 "Hg10 mi
6:56 PM63 °FScattered clouds.7 mph83%29.95 "Hg10 mi
6:36 PM61 °FSunny.3 mph88%29.95 "Hg10 mi
6:16 PM61 °FSunny.5 mph88%29.94 "Hg10 mi
5:56 PM59 °FPassing clouds.3 mph88%29.95 "Hg10 mi
5:36 PM61 °FScattered clouds.6 mph83%29.95 "Hg10 mi
5:16 PM61 °FBroken clouds.6 mph83%29.95 "Hg10 mi
4:56 PM61 °FLow clouds.5 mph83%29.95 "Hg10 mi
4:36 PM61 °FBroken clouds.3 mph88%29.95 "Hg10 mi
4:16 PM59 °FBroken clouds.6 mph88%29.96 "Hg10 mi
3:56 PM59 °FBroken clouds.6 mph88%29.96 "Hg10 mi
3:36 PM59 °FMostly cloudy.6 mph88%29.96 "Hg10 mi
3:16 PM59 °FOvercast.3 mph88%29.96 "Hg10 mi
2:56 PM61 °FMore clouds than sun.6 mph83%29.96 "Hg10 mi
2:36 PM61 °FCloudy.5 mph83%29.95 "Hg10 mi
1:56 PM61 °FOvercast.No wind83%29.96 "Hg10 mi
1:36 PM61 °FOvercast.No wind83%29.96 "Hg10 mi
1:16 PM61 °FOvercast.No wind83%29.96 "Hg10 mi
12:56 PM61 °FOvercast.No wind83%29.96 "Hg10 mi
12:36 PM61 °FOvercast.3 mph83%29.96 "Hg10 mi
12:16 PM61 °FOvercast.3 mph83%29.96 "Hg10 mi
11:56 AM61 °FOvercast.5 mph83%29.96 "Hg10 mi
11:36 AM61 °FOvercast.6 mph83%29.96 "Hg10 mi
11:16 AM61 °FCloudy.6 mph83%29.96 "Hg10 mi
10:56 AM61 °FMostly cloudy.3 mph83%29.96 "Hg10 mi
10:36 AM61 °FMostly cloudy.3 mph83%29.96 "Hg10 mi
10:16 AM61 °FCloudy.3 mph77%29.96 "Hg10 mi
9:56 AM61 °FMostly cloudy.No wind83%29.96 "Hg10 mi
9:36 AM59 °FOvercast.No wind88%29.96 "Hg10 mi
9:16 AM59 °FMostly cloudy.No wind88%29.97 "Hg10 mi
8:56 AM57 °FMostly cloudy.No wind94%29.97 "Hg10 mi
8:36 AM57 °FMostly cloudy.3 mph94%29.97 "Hg10 mi
8:16 AM59 °FBroken clouds.3 mph82%29.96 "Hg10 mi
7:56 AM59 °FBroken clouds.3 mph82%29.97 "Hg10 mi
7:36 AM59 °FMostly cloudy.No wind88%29.97 "Hg10 mi
7:16 AM59 °FBroken clouds.No wind88%29.97 "Hg10 mi
6:56 AM57 °FMore clouds than sun.No wind94%29.97 "Hg10 mi
6:36 AM57 °FMostly cloudy.No wind94%29.97 "Hg10 mi
6:16 AM57 °FMore clouds than sun.No wind88%29.97 "Hg9 mi
5:56 AM55 °FMostly cloudy.No wind100%29.97 "Hg10 mi
5:36 AM57 °FMostly cloudy.No wind88%29.97 "Hg9 mi
5:16 AM57 °FOvercast.No wind88%29.98 "Hg8 mi
4:56 AM55 °FMostly cloudy.No wind94%29.97 "Hg10 mi
4:36 AM55 °FMostly cloudy.No wind94%29.97 "Hg10 mi
4:16 AM55 °FOvercast.No wind94%29.98 "Hg5 mi
3:56 AM55 °FOvercast.No wind94%29.98 "Hg10 mi
3:36 AM55 °FMostly cloudy.No wind94%29.98 "Hg10 mi
3:16 AM55 °FMostly cloudy.3 mph94%29.98 "Hg10 mi
2:56 AM55 °FMostly cloudy.No wind94%29.99 "Hg10 mi
2:36 AM55 °FOvercast.No wind94%29.99 "Hg10 mi
2:16 AM55 °FOvercast.No wind94%29.99 "Hg10 mi
1:36 AM55 °FMostly cloudy.No wind94%30.00 "Hg10 mi
1:16 AM57 °FOvercast.No wind94%30.00 "Hg10 mi
12:56 AM55 °FOvercast.No wind94%30.00 "Hg10 mi
12:36 AM55 °FOvercast.No wind100%30.00 "Hg10 mi
12:16 AM55 °FOvercast.5 mph88%30.00 "Hg10 mi
Weather by CustomWeather, © 2015

See weather overviewHow to use our weather pages